Flag for Belgium Weather past 2 weeks in Charleroi, Belgium

Now
55 °F

Light rain. Partly sunny.


Feels Like: 52 °F
Forecast: 47 / 62 °F
Wind: 14 mph from Southwest

Location: Charleroi / Gosselies

Current Time: May 29, 2015 at 7:23:04 PM

Latest Report: May 29, 2015 at 6:50 PM


Visibility: N/A

Pressure: 29.80 "Hg

Humidity: 67%

Dew point: 45 °F

Location of CharleroiLocation

Historic Weather in Charleroi — Graph

°F

Charleroi temperature yesterday

Maximum temperature yesterday: 61 °F (at 4:20 PM)
Minimum temperature yesterday: 50 °F (at 11:50 PM)
Average temperature yesterday: 56 °F

Past Weeks' High & Low Weather Summary

 TemperatureHumidityPressure
High66 °F (May 22, 4:20 PM)100% (May 14, 11:50 PM)30.36 "Hg (May 14, 11:50 PM)
Low41 °F (May 20, 4:20 AM)34% (May 24, 7:20 PM)29.71 "Hg (May 18, 5:50 PM)
Average53 °F72%30.09 "Hg
* Reported May 14 5:20 PM — May 29 5:50 PM, Charleroi, Weather by CustomWeather, © 2015

Note: Actual official high and low records may vary slightly from our data, if they occured in-between our weather recording intervals... More about our weather records

Advertising

Charleroi weather history for previous 24 hours

 ConditionsComfort  
Time TempWeatherWind HumidityBarometerVisibility
5:50 PM
Fri, May 29
55 °FPartly sunny.16 mph63%29.80 "HgN/A
5:20 PM57 °FPartly sunny.18 mph59%29.80 "HgN/A
4:50 PM57 °FPartly sunny.20 mph55%29.83 "HgN/A
4:20 PM57 °FPartly sunny.21 mph55%29.83 "HgN/A
3:50 PM59 °FPartly sunny.17 mph51%29.83 "HgN/A
3:20 PM57 °FPartly sunny.15 mph51%29.83 "HgN/A
2:50 PM57 °FPartly sunny.18 mph48%29.83 "HgN/A
2:20 PM59 °FPassing clouds.18 mph48%29.83 "HgN/A
1:50 PM59 °FPassing clouds.17 mph45%29.83 "HgN/A
1:20 PM57 °FPassing clouds.18 mph55%29.86 "HgN/A
12:50 PM55 °FPassing clouds.18 mph55%29.86 "HgN/A
12:20 PM55 °FPassing clouds.16 mph59%29.86 "HgN/A
11:50 AM54 °FPassing clouds.16 mph67%29.86 "HgN/A
11:20 AM54 °FScattered clouds.14 mph67%29.86 "HgN/A
10:50 AM54 °FPassing clouds.15 mph67%29.89 "HgN/A
10:20 AM54 °FPassing clouds.16 mph67%29.89 "HgN/A
9:50 AM54 °FPassing clouds.15 mph63%29.89 "HgN/A
9:20 AM52 °FPassing clouds.13 mph72%29.89 "HgN/A
8:50 AM50 °FPassing clouds.9 mph82%29.89 "HgN/A
8:20 AM50 °FPassing clouds.10 mph76%29.89 "HgN/A
7:50 AM48 °FPassing clouds.10 mph82%29.92 "HgN/A
7:20 AM48 °FPassing clouds.10 mph82%29.92 "HgN/A
6:50 AM46 °FSunny.8 mph82%29.92 "Hg10 mi
6:20 AM46 °FClear.7 mph82%29.92 "Hg10 mi
5:50 AM45 °FClear.6 mph87%29.92 "Hg10 mi
5:20 AM45 °FClear.5 mph87%29.92 "Hg10 mi
4:50 AM45 °FClear.7 mph87%29.92 "Hg10 mi
4:20 AM45 °FClear.8 mph87%29.95 "Hg10 mi
3:50 AM45 °FClear.7 mph87%29.95 "Hg10 mi
3:20 AM46 °FClear.8 mph82%29.95 "Hg10 mi
2:50 AM46 °FClear.6 mph82%29.98 "Hg10 mi
1:50 AM46 °FClear.6 mph82%29.98 "Hg10 mi
1:20 AM48 °FClear.7 mph76%29.98 "Hg10 mi
11:50 PM
Thu, May 28
50 °FClear.6 mph71%29.98 "Hg10 mi
11:20 PM52 °FClear.7 mph67%29.98 "Hg10 mi
10:50 PM52 °FClear.7 mph67%29.98 "Hg10 mi
10:20 PM54 °FSunny.8 mph63%29.98 "Hg10 mi
9:50 PM54 °FPassing clouds.9 mph63%29.98 "HgN/A
9:20 PM55 °FPassing clouds.12 mph59%29.98 "HgN/A
8:50 PM55 °FPassing clouds.13 mph59%29.98 "HgN/A
8:20 PM57 °FPassing clouds.15 mph55%29.98 "HgN/A
7:50 PM57 °FPassing clouds.16 mph59%29.98 "HgN/A
7:20 PM59 °FPassing clouds.14 mph59%29.98 "HgN/A
Weather by CustomWeather, © 2015

See weather overviewHow to use our weather pages